Regional Weather Roundup
Issued by NWS

Home | Current Version | Previous Version | Text Only | Print | Product List | Glossary On
Versions: 1 2 3 4 5 6 7 8 9 10 11 12 13 14 15 16 17 18 19 20 21 22 23 24 25 26 27 28 29 30 31 32 33 34 35 36 37 38 39 40 41 42 43 44 45 46 47 48 49 50
645
ASUS43 KTOP 041408
RWRKS

WEATHER ROUNDUP FOR KANSAS
NATIONAL WEATHER SERVICE GOODLAND KS
900 AM CDT WED MAY 04 2016

NOTE:  "FAIR" INDICATES FEW OR NO CLOUDS BELOW 12,000 FEET WITH NO
SIGNIFICANT WEATHER AND/OR OBSTRUCTIONS TO VISIBILITY.

KSZ001>006-013>018-027>032-041>047-041500-
NORTHWEST KANSAS

CITY           SKY/WX    TMP DP  RH WIND       PRES   REMARKS
GOODLAND       SUNNY     57  39  51 W9        30.19R
HAYS           SUNNY     55  41  58 N15       30.11R
HILL CITY      SUNNY     58  43  57 N12       30.14R
RUSSELL        SUNNY     56  45  66 N10       30.09R
$$

KSZ061>065-074>080-084>089-041500-
SOUTHWEST KANSAS

CITY           SKY/WX    TMP DP  RH WIND       PRES   REMARKS
DODGE CITY     SUNNY     55  41  59 NW12      30.13R
ELKHART          N/A     54  39  57 W10         N/A
GARDEN CITY    SUNNY     53  39  59 NW14      30.15R
GREAT BEND     SUNNY     55  43  62 NW12      30.10R
LIBERAL        SUNNY     54  43  66 NW14      30.18R
PRATT          SUNNY     55  43  64 NW14      30.10R
$$

KSZ066>073-081>083-090>101-041500-
SOUTHEAST KANSAS

CITY           SKY/WX    TMP DP  RH WIND       PRES   REMARKS
CHANUTE        SUNNY     62  47  57 NW12      29.97R
COFFEYVILLE    SUNNY     63  48  58 NW13      29.97R
HUTCHINSON     SUNNY     61  44  53 N12       30.06R
MEDICINE LODGE   N/A     61  48  62 NW8       30.06R
NEWTON         SUNNY     57  43  58 N13       30.05R
PARSONS        SUNNY     63  49  60 NW12      29.98R
WICHITA INTL   SUNNY     61  46  57 NW14      30.03R
WICHITA JABRA  SUNNY     59  46  62 N14       30.03R
WICHITA MCCONL SUNNY     59  46  60 N13       30.03R
WINFIELD       SUNNY     61  49  64 NW12      30.29R
$$

KSZ007>012-019>026-033>040-048>060-102>105-041500-
NORTHEAST KANSAS

CITY           SKY/WX    TMP DP  RH WIND       PRES   REMARKS
CONCORDIA      SUNNY     58  40  51 N12       30.06R
EMPORIA        SUNNY     60  43  53 N10       29.99R
LAWRENCE       SUNNY     59  41  51 N17       29.96R
MANHATTAN      SUNNY     61  39  44 N9        30.03R
MARYSVILLE     SUNNY     55  41  58 N13G18    30.03R
OLATHE IND     SUNNY     59  41  51 NW17      29.95R
OLATHE EXE     SUNNY     58  38  47 N14       29.94R
SALINA         SUNNY     59  46  62 N13       30.06R
TOPEKA BILLARD SUNNY     60  40  47 N16G23    29.98R
TOPEKA FORBES  SUNNY     61  41  47 N14       29.98R
$$




USA.gov is the U.S. government's official web portal to all federal, state and local government web resources and services.